Battle Creek, MI

6:40 AM EDT on October 16, 2019 (GMT -0400)
Kellogg

Weather History for KBTL - July, 2019

Change the Weather History Date:

Wednesday, July 10, 2019

  Actual Average Record
Temperature  
Mean Temperature 79 °F 71 °F  
Max Temperature 92 °F 83 °F 93 °F (2007)
Min Temperature 65 °F 59 °F 50 °F (1997)
Degree Days  
Heating Degree Days 0 0  
Month to date heating degree days 0 6  
Since 1 June heating degree days 46 63  
Since 1 July heating degree days 0 6  
Cooling Degree Days 14 7  
Month to date cooling degree days 123 66  
Year to date cooling degree days 264 230  
Since 1 June cooling degree days 248 192  
Growing Degree Days 28 (Base 50)    
Moisture  
Dew Point 67 °F    
Average Humidity 67    
Maximum Humidity 81    
Minimum Humidity 52    
Precipitation  
Precipitation T in 0.11 in 0.88 in (2017)
Month to date precipitation 1.07 1.07  
Year to date precipitation 19.36 15.78  
Sea Level Pressure  
Sea Level Pressure 29.92 in    
Wind  
Wind Speed 7 mph (SSW)    
Max Wind Speed 16 mph    
Max Gust Speed 20 mph    
Visibility 10 miles    
Events      
T = Trace of Precipitation, MM = Missing Value Source: NWS Daily Summary

Daily Weather History Graph

Daily Weather History Graph

Search for Another Location

Airport or City:

Astronomy

Jul. 10, 2019 Rise Set
Actual Time 6:13 AM EDT 9:18 PM EDT
Civil Twilight 5:39 AM EDT 9:52 PM EDT
Nautical Twilight 4:56 AM EDT 10:35 PM EDT
Astronomical Twilight 4:04 AM EDT 11:27 PM EDT
Moon 3:19 PM EDT (7/10) 1:58 AM EDT (7/10)
Length of Visible Light 16h 12m
Length of Day
15h 05m
Waxing Gibbous, 63% of the Moon is Illuminated
Jul 10
Waxing Gibbous
Jul 16
Full
Jul 24
Last Quarter
Jul 31
New
Aug 7
First Quarter

Hourly Weather History & Observations

Time (EDT) Temp. Heat Index Dew Point Humidity Pressure Visibility Wind Dir Wind Speed Gust Speed Precip Events Conditions
12:53 AM 71.1 °F - 59.0 °F 66% 29.99 in 10.0 mi SE 5.8 mph - N/A   Clear
1:53 AM 69.1 °F - 59.0 °F 70% 29.99 in 10.0 mi SSE 6.9 mph - N/A   Clear
2:53 AM 69.1 °F - 55.9 °F 63% 29.98 in 10.0 mi SSE 8.1 mph - N/A   Clear
3:53 AM 66.9 °F - 55.9 °F 68% 29.98 in 10.0 mi South 5.8 mph - N/A   Clear
4:53 AM 66.0 °F - 55.9 °F 70% 29.97 in 10.0 mi SSE 3.5 mph - N/A   Clear
5:53 AM 66.0 °F - 57.9 °F 75% 29.96 in 10.0 mi SSE 6.9 mph - N/A   Clear
6:53 AM 66.9 °F - 60.1 °F 79% 29.96 in 10.0 mi South 4.6 mph - N/A   Mostly Cloudy
7:53 AM 70.0 °F - 62.1 °F 76% 29.96 in 10.0 mi SSW 4.6 mph - N/A   Overcast
8:53 AM 73.0 °F - 64.9 °F 76% 29.96 in 10.0 mi SSW 8.1 mph - N/A   Overcast
9:53 AM 79.0 °F - 69.1 °F 72% 29.95 in 10.0 mi SSW 8.1 mph - 0.00 in   Partly Cloudy
10:53 AM 80.1 °F 82.9 °F 69.1 °F 69% 29.94 in 10.0 mi SW 10.4 mph - N/A   Clear
11:53 AM 82.9 °F 88.0 °F 72.0 °F 69% 29.95 in 10.0 mi SW 6.9 mph - N/A   Clear
12:53 PM 84.9 °F 91.4 °F 73.0 °F 67% 29.94 in 10.0 mi SW 6.9 mph - N/A   Partly Cloudy
1:53 PM 86.0 °F 93.0 °F 73.0 °F 65% 29.92 in 10.0 mi SSW 5.8 mph - N/A   Clear
2:53 PM 88.0 °F 96.5 °F 73.9 °F 63% 29.91 in 10.0 mi SSW 6.9 mph - N/A   Partly Cloudy
3:53 PM 89.1 °F 98.0 °F 73.9 °F 61% 29.90 in 10.0 mi SW 9.2 mph - N/A   Mostly Cloudy
4:53 PM 90.0 °F 96.9 °F 72.0 °F 55% 29.88 in 10.0 mi WSW 9.2 mph - N/A   Mostly Cloudy
5:53 PM 89.1 °F 96.0 °F 72.0 °F 57% 29.88 in 10.0 mi West 8.1 mph - N/A   Partly Cloudy
6:53 PM 90.0 °F 95.4 °F 70.0 °F 52% 29.86 in 10.0 mi WSW 9.2 mph - N/A   Clear
7:53 PM 88.0 °F 93.8 °F 71.1 °F 57% 29.86 in 10.0 mi WSW 6.9 mph - N/A   Clear
8:53 PM 82.9 °F 87.5 °F 71.1 °F 67% 29.85 in 10.0 mi South 4.6 mph - N/A   Clear
9:53 PM 81.0 °F 84.1 °F 69.1 °F 67% 29.86 in 10.0 mi South 6.9 mph - N/A   Clear
10:53 PM 81.0 °F 84.4 °F 70.0 °F 69% 29.85 in 10.0 mi South 10.4 mph - N/A   Clear
11:53 PM 78.1 °F - 70.0 °F 76% 29.85 in 10.0 mi West 8.1 mph - N/A   Scattered Clouds